TimeEEST,TemperatureF,Dew PointF,Humidity,Sea Level PressureIn,VisibilityMPH,Wind Direction,Wind SpeedMPH,Gust SpeedMPH,PrecipitationIn,Events,Conditions,WindDirDegrees,DateUTC
12:20 AM,48.2,37.4,66,30.30,6.2,Calm,Calm,-,N/A,,Scattered Clouds,0,2012-10-02 21:20:00
12:50 AM,46.4,35.6,66,30.30,6.2,Variable,1.2,-,N/A,,Scattered Clouds,0,2012-10-02 21:50:00
1:20 AM,46.4,35.6,66,30.30,6.2,Calm,Calm,-,N/A,,Scattered Clouds,0,2012-10-02 22:20:00
1:50 AM,44.6,33.8,66,30.30,6.2,Variable,1.2,-,N/A,,Scattered Clouds,0,2012-10-02 22:50:00
2:20 AM,46.4,35.6,66,30.27,6.2,Calm,Calm,-,N/A,,Scattered Clouds,0,2012-10-02 23:20:00
3:00 AM,46,37,60,,12,Calm,Calm,,,,Partly Cloudy,,2012-10-03 00:00:00
3:20 AM,44.6,35.6,71,30.27,6.2,SW,2.3,-,N/A,,Scattered Clouds,230,2012-10-03 00:20:00
3:50 AM,42.8,35.6,76,30.27,6.2,Variable,1.2,-,N/A,,Scattered Clouds,0,2012-10-03 00:50:00
4:20 AM,42.8,35.6,76,30.27,6.2,Variable,1.2,-,N/A,,Scattered Clouds,0,2012-10-03 01:20:00
4:50 AM,42.8,35.6,76,30.27,6.2,Calm,Calm,-,N/A,,Scattered Clouds,0,2012-10-03 01:50:00
5:20 AM,41.0,33.8,76,30.27,6.2,ESE,2.3,-,N/A,,Scattered Clouds,110,2012-10-03 02:20:00
5:50 AM,41.0,33.8,76,30.27,6.2,Variable,2.3,-,N/A,,Scattered Clouds,0,2012-10-03 02:50:00
6:20 AM,42.8,35.6,76,30.27,6.2,Variable,2.3,-,N/A,,Scattered Clouds,0,2012-10-03 03:20:00
6:50 AM,44.6,35.6,71,30.27,6.2,Calm,Calm,-,N/A,,Scattered Clouds,0,2012-10-03 03:50:00
7:20 AM,46.4,35.6,66,30.27,6.2,West,1.2,-,N/A,,Scattered Clouds,270,2012-10-03 04:20:00
7:50 AM,50.0,37.4,62,30.27,6.2,Calm,Calm,-,N/A,,Scattered Clouds,0,2012-10-03 04:50:00
8:20 AM,55.4,39.2,54,30.30,6.2,Variable,1.2,-,N/A,,Mostly Cloudy,0,2012-10-03 05:20:00
8:50 AM,60.8,37.4,42,30.27,6.2,Variable,2.3,-,N/A,,Mostly Cloudy,0,2012-10-03 05:50:00
9:00 AM,60,37,31,,12,East,2.3,,,,Partly Cloudy,80,2012-10-03 06:00:00
9:20 AM,62.6,41.0,45,30.27,6.2,East,4.6,-,N/A,,Mostly Cloudy,80,2012-10-03 06:20:00
9:50 AM,66.2,37.4,35,30.27,6.2,ENE,10.4,-,N/A,,Mostly Cloudy,70,2012-10-03 06:50:00
10:20 AM,69.8,37.4,31,30.27,6.2,ENE,11.5,-,N/A,,Mostly Cloudy,60,2012-10-03 07:20:00
10:50 AM,71.6,37.4,29,30.24,6.2,ENE,6.9,-,N/A,,Mostly Cloudy,60,2012-10-03 07:50:00
11:20 AM,73.4,37.4,27,30.24,6.2,Variable,4.6,-,N/A,,Mostly Cloudy,0,2012-10-03 08:20:00
11:50 AM,77.0,35.6,22,30.24,6.2,South,9.2,-,N/A,,Mostly Cloudy,190,2012-10-03 08:50:00
12:20 PM,75.2,33.8,22,30.21,6.2,SW,9.2,-,N/A,,Mostly Cloudy,220,2012-10-03 09:20:00
12:50 PM,73.4,35.6,25,30.21,6.2,SSW,8.1,-,N/A,,Mostly Cloudy,200,2012-10-03 09:50:00
1:20 PM,73.4,35.6,25,30.21,6.2,SSW,11.5,-,N/A,,Mostly Cloudy,200,2012-10-03 10:20:00
1:50 PM,71.6,35.6,27,30.21,6.2,South,9.2,-,N/A,,Mostly Cloudy,170,2012-10-03 10:50:00
2:20 PM,73.4,35.6,25,30.18,6.2,South,9.2,-,N/A,,Mostly Cloudy,180,2012-10-03 11:20:00
2:50 PM,73.4,35.6,25,30.18,6.2,South,8.1,-,N/A,,Mostly Cloudy,180,2012-10-03 11:50:00
3:00 PM,74,35,14,,12,South,8.1,,,,Partly Cloudy,180,2012-10-03 12:00:00
3:20 PM,77.0,35.6,22,30.15,6.2,South,9.2,-,N/A,,Mostly Cloudy,190,2012-10-03 12:20:00
3:50 PM,73.4,30.2,20,30.15,6.2,SSW,10.4,-,N/A,,Mostly Cloudy,200,2012-10-03 12:50:00
4:20 PM,73.4,30.2,20,30.15,6.2,WSW,13.8,-,N/A,,Mostly Cloudy,250,2012-10-03 13:20:00
4:50 PM,71.6,32.0,23,30.15,6.2,SW,8.1,-,N/A,,Mostly Cloudy,220,2012-10-03 13:50:00
5:20 PM,64.4,41.0,42,30.18,6.2,SSW,17.3,31.1,N/A,,Mostly Cloudy,200,2012-10-03 14:20:00
5:50 PM,64.4,39.2,40,30.21,6.2,SW,15.0,32.2,N/A,,Mostly Cloudy,230,2012-10-03 14:50:00
6:20 PM,62.6,39.2,42,30.21,6.2,SW,5.8,-,N/A,,Mostly Cloudy,230,2012-10-03 15:20:00
6:50 PM,62.6,39.2,42,30.21,6.2,West,9.2,-,N/A,,Mostly Cloudy,280,2012-10-03 15:50:00
7:20 PM,60.8,41.0,48,30.21,6.2,West,8.1,-,N/A,,Scattered Clouds,280,2012-10-03 16:20:00
7:50 PM,59.0,39.2,48,30.21,6.2,Calm,Calm,-,N/A,,Scattered Clouds,0,2012-10-03 16:50:00
8:20 PM,55.4,39.2,54,30.21,6.2,Variable,2.3,-,N/A,,Scattered Clouds,0,2012-10-03 17:20:00
8:50 PM,51.8,37.4,58,30.21,6.2,Variable,2.3,-,N/A,,Scattered Clouds,0,2012-10-03 17:50:00
9:00 PM,52,38,48,,12,SSE,2.3,,,,Partly Cloudy,150,2012-10-03 18:00:00
9:20 PM,51.8,37.4,58,30.18,6.2,SE,3.5,-,N/A,,Scattered Clouds,130,2012-10-03 18:20:00
9:50 PM,53.6,39.2,58,30.18,6.2,Calm,Calm,-,N/A,,Scattered Clouds,0,2012-10-03 18:50:00
10:20 PM,51.8,39.2,62,30.18,6.2,Variable,2.3,-,N/A,,Scattered Clouds,0,2012-10-03 19:20:00
10:50 PM,53.6,41.0,62,30.18,6.2,Variable,2.3,-,N/A,,Scattered Clouds,0,2012-10-03 19:50:00
11:20 PM,53.6,41.0,62,30.18,6.2,Variable,3.5,-,N/A,,Scattered Clouds,0,2012-10-03 20:20:00
11:50 PM,59.0,42.8,55,30.18,6.2,ENE,3.5,-,N/A,,Scattered Clouds,70,2012-10-03 20:50:00